Location: *
(50.9167°S, 179.4000°W)
Time: 21:27:13
(UTC+00:00)

SL-16 R/B - Pass Details

Date: 03 March 2024
Orbit: 841 x 848 km, 71.0° (Epoch: 16 April)

Event Time Altitude Azimuth Distance (km) Brightness Sun altitude
Exits shadow 13:13:20 65° 138° (SE) 949 2.5 -31.0°
Drops below altitude 10° 13:18:13 10° 149° (SSE) 2,511 5.5 -30.7°
Sets 13:20:41 0° 149° (SSE) 3,452 6.5 -30.6°
